Regional Weather Roundup
Issued by NWS Wakefield, VA

Home | Current Version | Previous Version | Text Only | Print | Product List | Glossary On
Versions: 1 2 3 4 5 6 7 8 9 10 11 12 13 14 15 16 17 18 19 20 21 22 23 24 25 26 27 28 29 30 31 32 33 34 35 36 37 38 39 40 41 42 43 44 45 46 47 48 49
000
ASUS41 KAKQ 261615
RWRAKQ

REGIONAL WEATHER ROUNDUP
NATIONAL WEATHER SERVICE WAKEFIELD VA
1200 PM EDT TUE MAY 26 2015

Note: "fair" indicates few or no clouds below 12,000 feet with no
significant weather and/or obstructions to visibility. * = Denotes
station may not report precipitation (e.g., rain,snow,etc.),
thunder or fog.

VAZ042-051-052>054-056-261700-
NORTHERN VIRGINIA

CITY           SKY/WX    TMP DP  RH WIND       PRES   REMARKS
WASH NATIONAL  CLOUDY    82  67  60 S13       30.22F
DULLES         PTSUNNY   81  65  58 S9        30.21F
FORT BELVOIR   SUNNY     82  66  58 S10       30.22F
QUANTICO       PTSUNNY   79  68  69 S12       30.23F
FREDERICKSBRG* MOSUNNY   85  68  56 S14       30.22F
STAFFORD*      SUNNY     82  64  54 SW12G17   30.26F
WARRENTON      SUNNY     83  69  62 S9        30.22S
CULPEPER*      SUNNY     81  65  59 S9        30.22F
MANASSAS*      SUNNY     82  66  57 S12       30.21F
LEESBURG*      MOSUNNY   82  66  57 S12       30.23S
WINCHESTER     MOSUNNY   82  54  36 SW6       30.22S
FRONT ROYAL*   FAIR      79  64  61 S6        30.21S
LURAY*         FAIR      86  64  48 S6        30.23S
$$

VAZ048-049-060>072-079>083-261700-
CENTRAL AND SOUTH CENTRAL VIRGINIA

CITY           SKY/WX    TMP DP  RH WIND       PRES   REMARKS
RICHMOND       PTSUNNY   81  67  62 S12       30.26F
CHESTERFIELD*  NOT AVBL
PETERSBURG*    SUNNY     82  66  57 SW7       30.28F
HANOVER        MOSUNNY   81  66  60 SW13      30.27F
TAPPAHANNOCK*  MOSUNNY   81  62  51 S8        30.27S
QUINTON*       FAIR      80  67  64 S7        30.27F
CHARLOTTSVILLE MOSUNNY   82  65  56 S12       30.23F
GORDONSVILLE*  FAIR      80  67  63 S12       30.22F
ORANGE*        SUNNY     82  68  61 S10G16    30.24F
LOUISA*        PTSUNNY   81  68  65 SW7       30.23F
BUMPASS*       FAIR      81  67  63 SW7       30.24F
FARMVILLE*     PTSUNNY   82  67  60 SW12G17   30.25F
CREWE*         PTSUNNY   80  66  62 S5        30.27F
FORT PICKETT*  NOT AVBL
CHASE CITY*    PTSUNNY   83  70  65 S7        30.28F
CLARKSVILLE*   PTSUNNY   81  68  65 S7        30.28S
SOUTH HILL*    PTSUNNY   79  67  65 S5        30.35S
LAWRENCEVILLE* FAIR      81  68  65 S7        30.28F
EMPORIA*       SUNNY     81  63  54 SE8       30.30F
$$

VAZ088>098-261700-
SOUTHEAST VIRGINIA

CITY           SKY/WX    TMP DP  RH WIND       PRES   REMARKS
NORFOLK        MOSUNNY   82  61  48 SW10G18   30.29F
VIRGINIA BEACH MOSUNNY   81  61  50 S10       30.29F
NORFOLK NAVAL  MOSUNNY   84  62  47 SW8       30.31F
WEST POINT*    MOSUNNY   83  63  50 S8        30.29F
SALUDA*        FAIR      80  65  59 SW9G21    30.28S
NEWPORT NEWS   SUNNY     84  65  52 SW12      30.29F
LANGLEY AFB    SUNNY     80  65  59 S14       30.28F
FORT EUSTIS    SUNNY     80  64  59 VRB6      30.27F
WILLIAMSBURG*  SUNNY     84  66  54 SW7       30.30S
HR EXEC AP*    FAIR      81  63  54 SW8       30.31F
FRANKLIN*      MOSUNNY   81  64  56 S10       30.29F
WAKEFIELD      SUNNY     81  64  56 S8        30.29S
$$

VAZ020-022-025-037-045-261700-
WEST CENTRAL AND SOUTHWEST VIRGINIA

CITY           SKY/WX    TMP DP  RH WIND       PRES   REMARKS
STAUNTON*      PTSUNNY   80  61  52 SW6       30.27S
WAYNESBORO*    FAIR      78  64  61 W6        30.27S
HOT SPRINGS VA CLOUDY    67  58  73 W9        30.36S
LYNCHBURG      MOSUNNY   79  67  66 VRB7G17   30.28F
DANVILLE       MOSUNNY   83  65  54 S10G17    30.28F
SOUTH BOSTON*  PTSUNNY   81  67  61 MISG      30.28S
MARTINSVILLE   PTSUNNY   81  65  58 S7        30.30F
ROANOKE        PTSUNNY   80  64  58 VRB5      30.28F
BLACKSBURG     CLOUDY   N/A N/A N/A SW6       30.33F
DUBLIN*        PTSUNNY   79  64  60 SW9G16    30.31S
MARION*        CLOUDY    79  63  56 CALM      30.32F
HILLSVILLE*    PTSUNNY   74  64  69 S12G21    30.33F
RICHLANDS*     FAIR      75  63  64 S10G17    30.30S
WISE*          PTSUNNY   73  59  60 S13G22    30.30S
ABINGDON*      PTSUNNY   78  65  64 SW6       30.28S
$$

MDZ021>025-VAZ099-100-261700-
SOUTHERN MARYLAND AND THE DELMARVA PENINSULA

CITY           SKY/WX    TMP DP  RH WIND       PRES   REMARKS
PATUXENT RIVER CLOUDY    81  66  60 S12G18    30.25S
BAY BRIDGE APT   N/A    N/A N/A N/A S12G21    30.24S
LEONARDTOWN    SUNNY     79  64  61 SW12G18   30.26S
DOVER          MOSUNNY   83  67  59 SW14G22   30.21F
GEORGETOWN     SUNNY     82  65  56 SW16G24   30.26F
EASTON         MOSUNNY   82  68  61 SW9G17    30.28S
CAMBRIDGE      SUNNY     79  64  61 S13G18    30.25S
SALISBURY      SUNNY     81  65  58 SW15      30.26F
OCEAN CITY     SUNNY     73  64  73 S9G16     30.29S
WALLOPS ISLAND SUNNY     77  68  73 S16G23    30.29F
ACCOMACK*      SUNNY     81  66  61 SW9       30.29F
$$

NCZ012>017-030>032-261700-
NORTH CENTRAL AND EASTERN NORTH CAROLINA

CITY           SKY/WX    TMP DP  RH WIND       PRES   REMARKS
ROANOKE RAPIDS FAIR      79  63  57 SW3       30.29F
RALEIGH        MOSUNNY   82  66  58 SW12      30.30F
ELIZABETH CITY MOSUNNY   79  64  60 S12       30.31F
AHOSKIE*       SUNNY     79  64  59 S7        30.30F
EDENTON*         N/A     79  65  60 SW7       30.32S
CURRITUCK*     MOSUNNY   79  60  52 S6        30.32F
KILL DEVIL HLS PTSUNNY   78  66  68 S9        30.32F
MANTEO         PTSUNNY   75  66  75 S14G21    30.33F
CAPE HATTERAS  CLOUDY    76  64  66 S13       30.35S
TARBORO*       FAIR      82  63  51 SE6       30.31F
GOLDSBORO      MOSUNNY   81  68  65 VRB5      30.28F
WASHINGTON     SUNNY     81  63  53 SW9       30.32S
GREENVILLE     MOSUNNY   81  64  57 S6        30.31F
NEW BERN       PTSUNNY   82  66  58 S8        30.33F
WILMINGTON     PTSUNNY   82  70  66 S13       30.30F
$$

VAZ048-261700-
ELSEWHERE

CITY           SKY/WX    TMP DP  RH WIND       PRES   REMARKS
HARRISBURG PA  MOSUNNY   81  62  52 SE6       30.20S
BALTIMORE      PTSUNNY   82  63  52 SW10      30.21F
ANNAPOLIS      SUNNY     74  65  73 SE13      30.22F
ANDREWS AFB    SUNNY     81  67  61 S12G21    30.22F
PHILADELPHIA   MOSUNNY   83  62  49 SW18      30.22F
HENDERSON NC   PTSUNNY   80  64  57 S10       30.29F
GREENSBORO     PTSUNNY   79  63  57 VRB7      30.28F
ROCKY MOUNT    MOSUNNY   83  64  52 S10       30.30F
$$

VAZ100-261700-
MARINE

STATION/POSITION TIME  TEMP    WIND        PRES    WAVE   SWELL
                       AIR SEA DIR/SP/G            HT/PER HT/PER
                 (UTC) (F)     (DEG/KT/KT) (MB)    (FT/S) (FT/S)
BRANDYWINE LGT   1500   73 67  210/ 15/ 16 1024.7F
CAPE MAY NJ      1500   72 68  180/ 10/ 13 1024.5F
LEWES DE         1500   80 63  240/  6/ 11 1024.6F
15NM E FENWICK I 1550   64 61              1025.3F   2/ 4
OCEAN-CITY-INLET 1500   65 65  200/ 12/ 15 1025.6F
WACHAPREAGUE VA  1500   75 71  200/ 13/ 16 1026.1F
THOMAS POINT MD  1600   70 67  170/ 15/ 16 1024.1F
GOOSES REEF MD   1600   71 68  180/ 12/ 14 1024.9F   2/ 3
SOLOMONS ISLAND  1500      69                N/A
BISHOPS HEAD MD  1500   72 70  180/ 16/ 19 1024.6F
PINEY POINT MD   1500          220/ 12/ 13   N/A
CAMBRIDGE MD     1500   77 70  180/  6/ 15 1024.4S
LEWISETTA VA     1500   77 71              1024.5F
RAPPAHANNOCK LGT 1500          170/ 13/ 15 1026.6S
STINGRAY PT      1600   72 71  170/ 12/ 14 1025.6F   1/ 3
YORK RVR RNG VA  1500   74     210/ 10/ 11 1025.2F
YORKTOWN VA      1500   76 71  230/  8/ 13 1025.4F
JAMESTOWN VA     1600   78 74  220/  6/ 10 1024.5F
DOMINION TERM VA 1500   74     210/  9/ 11 1026.4S
KIPTOPEKE VA     1500      74  190/  5/  6   N/A
CHES BAY BRIDGE  1500   74 70  200/ 11/ 12 1026.0R
CAPE HENRY VA    1500   76     200/  9/ 13 1025.2S
CHESAPEAKE LGHT  1500   67     170/ 14/ 15 1027.3F
WILLOUBY STN VA  1500   74     250/  8/  8 1027.0R
CAPE HENRY BUOY  1528      66                N/A     2/ 6
1ST LANDING BUOY 1600      71              1025.6F
CAPE CHARLES BUO 1526      69                N/A     1/ 8   2/ 8
OFFSHORE WE BUOY 1511      67                N/A     2/ 8   2/ 8
64NM E OF VA BCH 1550   67 65  170/  6/  6 1027.2F   2/ 6   2/ 6
DUCK PIER NC     1500   75 60  220/  8/ 11 1026.2F
44100 DUCK FRF   1524      68                N/A     2/ 5
44056 DUCK FRF   1511      66                N/A     2/ 5
OREGON INLET NC  1500   76 75  170/ 12/ 15 1027.4F
HATTERAS NC      1500   76 74  170/ 10/ 13 1027.2R
DIAMOND SHLS NC  1550   75 77  170/ 14/ 14 1027.8R   3/ 5   2/ 6
CAPE LOOKOUT NC  1600   75     150/ 10/ 11 1026.9F
$$



USA.gov is the U.S. government's official web portal to all federal, state and local government web resources and services.